Location: D�derode
(51.8092°N, 10.1065°E)
Time: 06:34:13
(UTC+00:00)

H-2A R/B - Pass Details

Date: 01 December 2020
Orbit: 733 x 836 km, 98.2° (Epoch: 23 January)

Event Time Altitude Azimuth Distance (km) Brightness Sun altitude
Exits shadow 19:16:03 25° 247° (WSW) 1,542 3.9 -36.6°
Maximum altitude 19:17:06 27° 267° (W) 1,474 3.9 -36.7°
Drops below altitude 10° 19:21:27 10° 325° (NW) 2,325 4.9 -37.4°
Sets 19:24:05 0° 338° (NNW) 3,240 5.6 -37.8°
